Simultaneous Nadir Overpasses (SNOs) Predictions

Prediction of SNOs between NOAA-20 and TERRA Satellite Orbit:

Table of predicted SNOs for the next 14.0 days since TLE Epoch: 11/2/2024
Index Date (NOAA-20) Time (NOAA-20) Lat,Lon (NOAA-20) SZA (NOAA-20 ) Date (TERRA) Time (TERRA) Lat,Lon (TERRA) SZA (TERRA ) Distance(km) Time Diff (sec)
1 11/03/2024 15:12:26 73.51, -58.22 88.85 11/03/2024 15:13:32 73.41, -55.71 88.69 80.25 66
2 11/03/2024 16:02:55 -72.78, 110.68 91.91 11/03/2024 16:03:05 -72.80, 110.76 91.90 3.38 10
3 11/03/2024 16:53:39 72.66, -81.75 87.97 11/03/2024 16:52:27 72.65, -81.86 87.97 3.65 72
4 11/06/2024 02:24:48 73.40, 133.93 89.48 11/06/2024 02:25:56 73.26, 135.86 89.29 63.39 68
5 11/06/2024 03:15:19 -72.77, -57.39 91.18 11/06/2024 03:15:27 -72.76, -57.46 91.19 2.57 8
6 11/06/2024 04:06:01 72.54, 110.37 88.60 11/06/2024 04:04:49 72.60, 109.93 88.67 16.20 72
7 11/08/2024 13:37:08 73.21, -33.75 90.00 11/08/2024 13:38:18 73.12, -32.54 89.88 40.02 70
8 11/08/2024 14:27:42 -72.78, 134.49 90.45 11/08/2024 14:27:45 -72.77, 134.44 90.46 1.79 3
9 11/08/2024 15:18:21 72.40, -57.44 89.17 11/08/2024 15:17:10 72.45, -58.46 89.25 34.65 71
10 11/11/2024 00:49:26 72.99, 158.63 90.46 11/11/2024 00:50:38 72.93, 158.98 90.38 13.07 72
11 11/11/2024 01:40:06 -72.81, -33.67 89.73 11/11/2024 01:40:02 -72.78, -33.64 89.75 2.78 4
12 11/11/2024 02:30:40 72.18, 134.89 89.64 11/11/2024 02:29:31 72.26, 133.08 89.76 62.19 69
13 11/13/2024 12:01:47 72.89, -9.27 91.02 11/13/2024 12:02:54 72.90, -9.18 91.02 3.23 67
14 11/13/2024 12:52:29 -72.81, 158.22 89.06 11/13/2024 12:52:17 -72.81, 158.30 89.07 2.61 12
15 11/15/2024 23:14:09 72.87,-177.32 91.63 11/15/2024 23:15:08 72.88,-177.31 91.64 1.49 59
16 11/16/2024 00:04:51 -72.78, -9.82 88.46 11/16/2024 00:04:31 -72.78, -9.84 88.46 0.73 20



Historial Predications of SNOs between NOAA-20 and TERRA
